Regional Weather Roundup
Issued by NWS

Home | Current Version | Previous Version | Graphics & Text | Print | Product List | Glossary On
Versions: 1 2 3 4 5 6 7 8 9 10 11 12 13 14 15 16 17 18 19 20 21 22 23 24 25 26 27 28 29 30 31 32 33 34 35 36 37 38 39 40 41 42 43 44 45 46 47 48 49 50
766
ASUS45 KSLC 081610
RWRUT

UTAH REGIONAL WEATHER ROUNDUP
NATIONAL WEATHER SERVICE SALT LAKE CITY UT
900 AM MST THU DEC 08 2016

UTZ001>011-023>025-081700-

NORTHERN UTAH

CITY           SKY/WX    TMP DP  RH WIND       PRES   REMARKS
BRIGHAM CITY     N/A     17   9  71 N3        30.28S
DUGWAY         PTSUNNY   21  11  64 NW1       30.28R
HILL AFB       CLOUDY    15   3  59 E17       30.24F WCI  -1
LOGAN          MOSUNNY   13   9  84 N6        30.28F WCI   4
OGDEN          MOSUNNY   19   6  57 S7        30.25F WCI  10
SALT LAKE CITY PTSUNNY   24  10  55 S7        30.26S WCI  16
TOOELE VALLEY  CLOUDY    27  14  59 CALM      30.26F
WENDOVER       CLOUDY    19  10  68 S5        30.26F WCI  13
HEBER CITY     MOSUNNY   14   9  79 CALM      30.23F
WEST JORDAN    CLOUDY    22  15  72 SE9       30.25F WCI  12

$$

UTZ011>015-024>027-081700-

CENTRAL/NORTHEAST UTAH

CITY           SKY/WX    TMP DP  RH WIND       PRES   REMARKS
PROVO AIRPORT  CLOUDY    23  10  58 VRB5      30.28S WCI  17
MOAB/CANYONLAN CLOUDY    25   6  44 E9        30.35R WCI  15
DELTA          MOSUNNY   21   9  58 S3        30.25S
PRICE          CLOUDY    18  -4  37 SE3       30.28R
ROOSEVELT      CLOUDY    14   5  67 NE3       30.38S
VERNAL         CLOUDY    13   4  67 CALM      30.36R

$$

UTZ013>016-019>022-027-081700-

SOUTHERN UTAH

CITY           SKY/WX    TMP DP  RH WIND       PRES   REMARKS
BRYCE CANYON   CLOUDY    17   9  70 CALM      30.23
CEDAR CITY     CLOUDY    22  10  60 W5        30.21F WCI  16
MILFORD        CLOUDY    22   8  55 S6        30.23S WCI  14
ST GEORGE      MOSUNNY   30  12  47 CALM      30.34R
HANKSVILLE     CLOUDY    19   5  53 CALM      30.39R
BLANDING       CLOUDY    26   1  34 CALM      30.38R

$$

REGIONAL REPORTS     COLORADO/ARIZONA

CITY           SKY/WX    TMP DP  RH WIND       PRES   REMARKS
CRAIG, CO        N/A      2  -4  76 CALM      30.32S
GRAND JUNCTION CLOUDY    22   7  52 SE8       30.36S WCI  12
RIFLE, CO      CLOUDY    13   4  67 CALM      30.38R
MONTROSE, CO   CLOUDY    18   8  65 SE3       30.37R
CORTEZ, CO     CLOUDY    21   9  59 SE3       30.32R
COLORADO CITY    N/A     36  10  35 NE3       30.28S
PAGE, AZ       SUNNY     34   5  29 CALM      30.32R
GRAND CANYON   SUNNY     31  15  52 E3        30.25R
KINGMAN, AZ    SUNNY     35  10  35 CALM      30.24R
FLAGSTAFF, AZ  SUNNY     26  21  81 CALM      30.26R

$$

REGIONAL REPORTS    NEVADA/IDAHO/WYOMING

CITY           SKY/WX    TMP DP  RH WIND       PRES   REMARKS
LAS VEGAS, NV  MOSUNNY   40   8  26 CALM      30.27R
ELY, NY        CLOUDY    23  13  65 NW5       30.15S WCI  17
ELKO, NV       LGT SNOW  19  15  84 E9        30.12F FOG     WCI   8
POCATELLO, ID  CLOUDY     6   2  83 N5        30.28S WCI  -3
BURLEY, ID     CLOUDY    10   5  80 NE14      30.24R WCI  -6
FORT BRIDGER,  CLOUDY    -2  -5  87 NE3       30.24S
EVANSTON, WY   CLOUDY     3  -4  72 E10       30.16F WCI -12
ROCK SPRINGS,  CLOUDY    -6 -10  83 CALM      30.24S
KEMMERER, WY     N/A     -4  -9  77 N5        30.18S WCI -15

$$




USA.gov is the U.S. government's official web portal to all federal, state and local government web resources and services.